Regional Weather Roundup
Issued by NWS Upton, NY

Current Version | Previous Version | Graphics & Text | Print | Product List | Glossary Off
Versions: 1 2 3 4 5 6 7 8 9 10 11 12 13 14 15 16 17 18 19 20 21 22 23 24 25 26 27 28 29 30 31 32 33 34 35 36 37 38 39 40 41 42 43 44 45 46 47 48 49 50

384
ASUS41 KOKX 241908
RWROKX

REGIONAL WEATHER ROUNDUP
NATIONAL WEATHER SERVICE NEW YORK NY
300 PM EDT SAT SEP 24 2016

NOTE: "FAIR" INDICATES FEW OR NO CLOUDS BELOW 12,000 FEET WITH NO
SIGNIFICANT WEATHER AND/OR OBSTRUCTIONS TO VISIBILITY.

NYZ071-072-176-178-NJZ106-104-242000-
NEW YORK CITY METRO AREA

CITY           SKY/WX    TMP DP  RH WIND       PRES   REMARKS
Central Park   SUNNY     70  43  37 VRB5      30.11F
LaGuardia APRT MOSUNNY   71  44  37 N14G20    30.08F
Kennedy INTL   MOSUNNY   71  42  35 N10       30.08F
Newark/Liberty MOSUNNY   71  44  37 N15       30.08F
Bronx Bot Gard   N/A     70  41  35 N1        30.10S
Wall St Helipt CLEAR     73  46  38 NE12G20   30.09F
Teterboro      SUNNY     70  38  31 NW9       30.08F
$$

NYZ177-179-078>081-242000-
LONG ISLAND NEW YORK

CITY           SKY/WX    TMP DP  RH WIND       PRES   REMARKS
Farmingdale    SUNNY     69  44  40 N8        30.08F
MacArthur/ISP  MOSUNNY   69  46  43 N13       30.08F
Shirley        MOSUNNY   67  47  48 N13G18    30.09F
Riverhead      NOT AVBL
Westhampton    MOSUNNY   67  42  40 N16       30.09F
Southampton      N/A     68  50  52 NE6       30.04F
Bridgehampton    N/A     66  48  52 E2        29.93F
East Hampton   PTSUNNY   64  46  51 N5        30.07F
Montauk          N/A     67  45  45 N7        30.09F
$$

NYZ052-065-067-242000-
HUDSON VALLEY

CITY           SKY/WX    TMP DP  RH WIND       PRES   REMARKS
White Plains   MOSUNNY   69  41  36 N8G20     30.08F
Newburgh       MOSUNNY   68  45  42 E12       30.11F
Montgomery     MOSUNNY   68  44  42 CALM      30.09F
Poughkeepsie   SUNNY     68  40  35 N10G17    30.10S
Albany         PTSUNNY   65  42  43 N7        30.12F
$$

NJZ001-105-106-008-010-013-015-019>022-104-242000-
NEW JERSEY

CITY           SKY/WX    TMP DP  RH WIND       PRES   REMARKS
Newark/Liberty MOSUNNY   71  44  37 N15       30.08F
Teterboro      SUNNY     70  38  31 NW9       30.08F
Caldwell       SUNNY     70  42  36 N6        30.10F
Morristown     MOSUNNY   70  45  40 NE10G16   30.09F
Somerville     MOSUNNY   72  47  40 NE7       30.07F
Linden         NOT AVBL
Sussex         MOSUNNY   70  46  42 NE5       30.09F
Abdover          N/A     70  45  40 VRB5      30.09F
Trenton        PTSUNNY   70  52  52 MISG      30.08F
Millville      CLOUDY    64  59  83 NE8       30.10F
Atlantic City  CLOUDY    64  57  78 N6        30.09S
Wrightstown    CLOUDY    67  53  62 NE7       30.07S
Toms River     CLOUDY    65  55  70 N7        30.10S
Belmar         PTSUNNY   67  53  61 NW9       30.10F
$$

PAZ047>061-062-071-242000-
EASTERN PENNSYLVANIA

CITY           SKY/WX    TMP DP  RH WIND       PRES   REMARKS
Philadelphia   PTSUNNY   70  54  56 VRB3      30.10F
Allentown      SUNNY     74  44  34 NW10      30.08F
Scranton       SUNNY     67  45  45 N12       30.13F
$$

CTZ002-004>006-009-010-012-RIZ004-006-007-MAZ004-011-015-242000-
SOUTHERN NEW ENGLAND
 IN CT

CITY           SKY/WX    TMP DP  RH WIND       PRES   REMARKS
Bradley INTL   MOSUNNY   67  41  38 VRB6      30.08F
Hartford       SUNNY     67  42  40 N8        30.08F
Danbury        SUNNY     67  39  35 NW8       30.10F
Wtrbury/Oxford MOSUNNY   66  36  32 NE13      30.10F
Bridgeport     MOSUNNY   71  43  36 NE7       30.07F
Meriden        MOSUNNY   70  40  33 E7G18     30.08F
New Haven      MOSUNNY   69  42  37 NE10      30.07F
Chester        FAIR      66  39  37 N9G17     30.08F
Groton         MOSUNNY   68  44  42 N8        30.07S
Wilimantic     MOSUNNY   68  39  34 N13       30.09F

 IN RI

CITY           SKY/WX    TMP DP  RH WIND       PRES   REMARKS
Providence     MOSUNNY   66  40  38 NW12      30.07F
Block Island   MOSUNNY   65  48  54 VRB5      30.08S
Westerly       MOSUNNY   68  40  35 NW6       30.08F
 IN MA

CITY           SKY/WX    TMP DP  RH WIND       PRES   REMARKS
Boston         PTSUNNY   61  45  55 E13       30.07F
Worcester      MOSUNNY   61  36  39 NW15      30.08F
Westfield      MOSUNNY   70  38  31 N13       30.08F
Provincetown   SUNNY     63  45  51 NE9       30.08S
Nantucket      PTSUNNY   62  45  53 N14       30.05F
$$

ANZ330-335-338-340-345-350-353-355-242000-
COASTAL MARINE OBSERVATIONS


STATION/POSITION TIME  SKY/WX   TEMP    WIND        PRES    VSBY  WAVE
                                AIR SEA DIR/SP/G                  HT/PER
                 (UTC)          (F)     (DEG/KT/KT) (MB)    (MI)  (FT/S)
NY HARB ENTRANCE 1850            65 72   20/  6/ 10 1018.4          4/ 7
20S FIRE ISLAND  1850            63 71   20/ 12/ 16 1018.0          5/11
GREAT SOUTH BAY  1830            65 73   40/  6/ 14   N/A
23 SSW MONTAUK P 1850            63 69  360/ 10/ 14 1018.4          5/11
15 E BARNEGAT LI 1830               71                N/A           6/10
HUDSON CANYON    1750            64 70              1017.2          6/11
KINGS POINT      1842            68 74              1018.5
EXECUTION ROCKS  1845            69      70/  6/  8   N/A
CENTRAL LI SOUND 1830            65 73   10/ 10/ 16   N/A           1/ 4
EASTERN LI SOUND NOT AVBL
ROBBINS REEF     1848            67      30/ 12/ 14 1018.8
$$


>>>>>>>>>>>>>>>>>>>>>>>>>>>> KEY <<<<<<<<<<<<<<<<<<<<<<<<<<<
>                                                          <
>     SKY/WX - Sky Condition/Present Weather               <
>     TMP    - Temperature in Fahrenheit                   <
>     DP     - Dew Point in Fahrenheit                     <
>     RH     - Relative Humidity in Percent                <
>     WIND   - Direction (from) and Speed in MPH           <
>     PRES   - Mean Sea Level Pressure (inches of Hg)      <
>     WCI    - Wind Chill Index                            <
>     VSB    - VISIBILITY IN MILES                         <
>     HX     - HEAT INDEX                                  <
>     TC     - TEMPERATURE IN CELSIUS                      <
>     VRB    - VARIABLE WIND DIRECTION                     <
>                                                          <
>>>>>>>>>>>>>>>>>>>>>>>>>>>> KEY <<<<<<<<<<<<<<<<<<<<<<<<<<<




USA.gov is the U.S. government's official web portal to all federal, state and local government web resources and services.